When you browse on this site, cookies collect data to enhance your experience and personalize the content and advertising you see.
Visit our Privacy Policy to learn more. By continuing to use the site, you agree to this use of cookies and data.

Hourly Weather Kuzovkovo

Today, 13 August, Thursday

Time Temperature Precipitation Wind Pressure Humidity
00:00 +9°C° 0 mm 2 mps 742 mmHg 96%
01:00 +8°C° 0 mm 2 mps 742 mmHg 95%
02:00 +7°C° 0 mm 2 mps 743 mmHg 97%
03:00 +8°C° 0 mm 2 mps 742 mmHg 96%
04:00 +8°C° 0 mm 2 mps 742 mmHg 95%
05:00 +8°C° 0 mm 2 mps 742 mmHg 94%
06:00 +9°C° 0 mm 2 mps 742 mmHg 87%
07:00 +12°C° 0 mm 2 mps 742 mmHg 81%
08:00 +12°C° 0 mm 3 mps 742 mmHg 75%
09:00 +14°C° 0 mm 3 mps 742 mmHg 67%
10:00 +16°C° 0 mm 3 mps 742 mmHg 59%
11:00 +17°C° 0 mm 3 mps 742 mmHg 50%
12:00 +17°C° 0 mm 3 mps 742 mmHg 52%
13:00 +16°C° 0 mm 3 mps 742 mmHg 54%
14:00 +16°C° 0 mm 3 mps 742 mmHg 56%
15:00 +16°C° 0 mm 3 mps 742 mmHg 59%
16:00 +15°C° 0 mm 2 mps 742 mmHg 62%
17:00 +15°C° 0 mm 2 mps 741 mmHg 65%
18:00 +14°C° 0 mm 2 mps 742 mmHg 70%
19:00 +13°C° 0 mm 2 mps 742 mmHg 76%
20:00 +10°C° 0 mm 2 mps 742 mmHg 81%
21:00 +10°C° 0 mm 2 mps 742 mmHg 84%
22:00 +9°C° 0 mm 2 mps 742 mmHg 88%
23:00 +8°C° 0 mm 2 mps 742 mmHg 91%

Tomorrow, 14 August, Friday

Time Temperature Precipitation Wind Pressure Humidity
00:00 +8°C° 0 mm 2 mps 742 mmHg 93%
01:00 +8°C° 0 mm 2 mps 742 mmHg 94%
02:00 +7°C° 0 mm 2 mps 743 mmHg 96%
03:00 +7°C° 0 mm 2 mps 743 mmHg 96%
04:00 +7°C° 0 mm 2 mps 743 mmHg 96%
05:00 +7°C° 0 mm 2 mps 743 mmHg 96%
06:00 +9°C° 0 mm 2 mps 743 mmHg 87%
07:00 +12°C° 0 mm 2 mps 743 mmHg 78%
08:00 +14°C° 0 mm 2 mps 743 mmHg 70%
09:00 +15°C° 0 mm 2 mps 743 mmHg 64%
10:00 +17°C° 0 mm 2 mps 743 mmHg 58%
11:00 +18°C° 0 mm 2 mps 743 mmHg 52%
12:00 +18°C° 0 mm 2 mps 743 mmHg 51%
13:00 +18°C° 0 mm 2 mps 743 mmHg 50%
14:00 +19°C° 0 mm 2 mps 743 mmHg 50%
15:00 +19°C° 0 mm 2 mps 743 mmHg 52%
16:00 +19°C° 0 mm 1 mps 743 mmHg 55%
17:00 +19°C° 0 mm 1 mps 743 mmHg 57%
18:00 +16°C° 0 mm 1 mps 743 mmHg 64%
19:00 +14°C° 0 mm 1 mps 743 mmHg 71%
20:00 +11°C° 0 mm 0 mps 743 mmHg 78%
21:00 +12°C° 0 mm 1 mps 743 mmHg 80%
22:00 +11°C° 0 mm 1 mps 743 mmHg 82%
23:00 +11°C° 0 mm 1 mps 744 mmHg 85%

Day after tomorrow, 15 August, Saturday

Time Temperature Precipitation Wind Pressure Humidity
00:00 +10°C° 0 mm 1 mps 744 mmHg 86%
01:00 +10°C° 0 mm 1 mps 744 mmHg 88%
02:00 +10°C° 0 mm 1 mps 744 mmHg 90%
03:00 +10°C° 0 mm 1 mps 743 mmHg 89%
04:00 +10°C° 0 mm 1 mps 743 mmHg 89%
05:00 +10°C° 0 mm 1 mps 743 mmHg 89%
06:00 +12°C° 0 mm 1 mps 743 mmHg 81%
07:00 +14°C° 0 mm 1 mps 743 mmHg 74%
08:00 +16°C° 0 mm 1 mps 744 mmHg 66%
09:00 +19°C° 0 mm 1 mps 743 mmHg 62%
10:00 +20°C° 0 mm 1 mps 743 mmHg 58%
11:00 +21°C° 0 mm 1 mps 743 mmHg 54%
12:00 +21°C° 0.1 mm 1 mps 743 mmHg 55%
13:00 +22°C° 0.1 mm 1 mps 743 mmHg 56%
14:00 +22°C° 0.1 mm 1 mps 742 mmHg 57%
15:00 +22°C° 0.1 mm 1 mps 742 mmHg 61%
16:00 +21°C° 0.1 mm 1 mps 742 mmHg 65%
17:00 +19°C° 0.1 mm 0 mps 742 mmHg 69%
18:00 +17°C° 0 mm 0 mps 742 mmHg 76%
19:00 +16°C° 0 mm 1 mps 741 mmHg 83%
20:00 +14°C° 0 mm 1 mps 741 mmHg 90%
21:00 +14°C° 0 mm 1 mps 741 mmHg 91%
22:00 +13°C° 0 mm 1 mps 741 mmHg 93%
23:00 +13°C° 0 mm 1 mps 741 mmHg 94%

16 August, Sunday

Time Temperature Precipitation Wind Pressure Humidity
00:00 +13°C° 0 mm 1 mps 741 mmHg 95%
01:00 +13°C° 0 mm 1 mps 741 mmHg 95%
02:00 +12°C° 0 mm 1 mps 741 mmHg 95%
03:00 +12°C° 0 mm 1 mps 741 mmHg 95%
04:00 +12°C° 0 mm 1 mps 741 mmHg 95%
05:00 +12°C° 0 mm 1 mps 741 mmHg 96%
06:00 +14°C° 0 mm 1 mps 741 mmHg 89%
07:00 +16°C° 0 mm 1 mps 741 mmHg 82%
08:00 +20°C° 0 mm 1 mps 741 mmHg 75%
09:00 +20°C° 0 mm 2 mps 741 mmHg 71%
10:00 +21°C° 0 mm 2 mps 740 mmHg 67%
11:00 +24°C° 0 mm 2 mps 740 mmHg 63%
12:00 +24°C° 0.2 mm 2 mps 740 mmHg 60%
13:00 +25°C° 0.2 mm 2 mps 740 mmHg 57%
14:00 +26°C° 0.2 mm 3 mps 740 mmHg 55%
15:00 +25°C° 0.3 mm 2 mps 739 mmHg 62%
16:00 +24°C° 0.3 mm 2 mps 739 mmHg 70%
17:00 +23°C° 0.3 mm 2 mps 739 mmHg 77%
18:00 +21°C° 0.1 mm 2 mps 739 mmHg 82%
19:00 +19°C° 0.1 mm 2 mps 739 mmHg 86%
20:00 +17°C° 0.1 mm 2 mps 739 mmHg 90%
21:00 +17°C° 0.1 mm 2 mps 739 mmHg 91%
22:00 +17°C° 0.1 mm 2 mps 739 mmHg 92%
23:00 +16°C° 0.1 mm 2 mps 739 mmHg 93%

17 August, Monday

Time Temperature Precipitation Wind Pressure Humidity
00:00 +16°C° 0 mm 2 mps 739 mmHg 94%
01:00 +15°C° 0 mm 2 mps 739 mmHg 95%
02:00 +15°C° 0 mm 2 mps 739 mmHg 96%
03:00 +15°C° 0 mm 2 mps 739 mmHg 96%
04:00 +15°C° 0 mm 2 mps 738 mmHg 96%
05:00 +15°C° 0 mm 2 mps 738 mmHg 95%
06:00 +16°C° 0.1 mm 3 mps 738 mmHg 92%
07:00 +17°C° 0.1 mm 3 mps 738 mmHg 88%
08:00 +19°C° 0.1 mm 3 mps 738 mmHg 84%
09:00 +20°C° 0.4 mm 3 mps 738 mmHg 80%
10:00 +21°C° 0.4 mm 3 mps 738 mmHg 77%
11:00 +22°C° 0.4 mm 3 mps 738 mmHg 73%
12:00 +22°C° 0.5 mm 3 mps 738 mmHg 72%
13:00 +22°C° 0.5 mm 3 mps 738 mmHg 70%
14:00 +22°C° 0.5 mm 3 mps 738 mmHg 69%
15:00 +22°C° 0.1 mm 3 mps 738 mmHg 67%
16:00 +22°C° 0.1 mm 3 mps 737 mmHg 66%
17:00 +23°C° 0.1 mm 2 mps 737 mmHg 65%
18:00 +20°C° 0 mm 2 mps 737 mmHg 70%
19:00 +17°C° 0 mm 2 mps 737 mmHg 76%
20:00 +15°C° 0 mm 1 mps 737 mmHg 81%
21:00 +14°C° 0 mm 1 mps 738 mmHg 82%
22:00 +13°C° 0 mm 1 mps 738 mmHg 83%
23:00 +12°C° 0 mm 1 mps 738 mmHg 83%

18 August, Tuesday

Time Temperature Precipitation Wind Pressure Humidity
00:00 +12°C° 0 mm 1 mps 738 mmHg 83%
01:00 +11°C° 0 mm 1 mps 738 mmHg 82%
02:00 +10°C° 0 mm 0 mps 738 mmHg 82%
03:00 +10°C° 0 mm 0 mps 738 mmHg 82%
04:00 +10°C° 0 mm 0 mps 738 mmHg 81%
05:00 +9°C° 0 mm 0 mps 738 mmHg 81%
06:00 +12°C° 0 mm 0 mps 738 mmHg 74%
07:00 +14°C° 0 mm 0 mps 738 mmHg 67%
08:00 +16°C° 0 mm 0 mps 738 mmHg 59%
09:00 +18°C° 0 mm 0 mps 738 mmHg 55%
10:00 +19°C° 0 mm 0 mps 738 mmHg 51%
11:00 +21°C° 0 mm 0 mps 738 mmHg 47%
12:00 +23°C° 0 mm 1 mps 737 mmHg 45%
13:00 +23°C° 0 mm 1 mps 737 mmHg 42%
14:00 +23°C° 0 mm 1 mps 737 mmHg 40%
15:00 +23°C° 0 mm 1 mps 737 mmHg 46%
16:00 +23°C° 0 mm 1 mps 736 mmHg 51%
17:00 +22°C° 0 mm 1 mps 736 mmHg 56%
18:00 +20°C° 0 mm 1 mps 736 mmHg 63%
19:00 +18°C° 0 mm 1 mps 736 mmHg 69%
20:00 +15°C° 0 mm 1 mps 736 mmHg 75%
21:00 +14°C° 0 mm 1 mps 736 mmHg 76%
22:00 +14°C° 0 mm 1 mps 736 mmHg 78%
23:00 +14°C° 0 mm 1 mps 737 mmHg 80%
Show more